User: anonymous   Login
Location: Potawatomi Wildlife Park
(41.2308°N, 86.1050°W)
Time: 12:43:25
(UTC-04:00)
Language:

SL-16 R/B - Orbit

View from above orbital plane
View from above orbital plane
View from above satellite
View from above satellite

Ground track
Ground track

The orbit data is extracted from the following two-line orbital elements,

1 27006U 01056F   17202.30194800 -.00000052 +00000-0 -10402-4 0  9994
2 27006 099.3189 342.4347 0014119 218.1320 198.3872 13.70969928781082
Epoch (UTC): 21 July 2017 07:14:48
Eccentricity: 0.0014119
inclination: 99.3189°
perigee height: 985 km
apogee height: 1006 km
right ascension of ascending node: 342.4347°
argument of perigee: 218.1320°
revolutions per day: 13.70969928
mean anomaly at epoch: 198.3872°
orbit number at epoch: 78108

The dashed part of the orbit path shows where the satellite is in the earth's shadow,  

DLR